TimeEDT,TemperatureF,Dew PointF,Humidity,Sea Level PressureIn,VisibilityMPH,Wind Direction,Wind SpeedMPH,Gust SpeedMPH,PrecipitationIn,Events,Conditions,WindDirDegrees,DateUTC
12:52 AM,27.0,25.0,92,30.39,10.0,Calm,Calm,-,N/A,,Clear,0,2011-10-07 04:52:00
1:52 AM,26.1,24.1,92,30.40,10.0,Calm,Calm,-,N/A,,Scattered Clouds,0,2011-10-07 05:52:00
2:52 AM,25.0,21.9,88,30.40,10.0,Calm,Calm,-,N/A,,Clear,0,2011-10-07 06:52:00
3:52 AM,25.0,21.9,88,30.41,10.0,Calm,Calm,-,N/A,,Clear,0,2011-10-07 07:52:00
4:52 AM,25.0,21.9,88,30.42,10.0,Calm,Calm,-,N/A,,Clear,0,2011-10-07 08:52:00
5:47 AM,24.8,21.2,86,30.39,10.0,Calm,Calm,-,N/A,,Scattered Clouds,0,2011-10-07 09:47:00
6:35 AM,24.8,21.2,86,30.40,10.0,Calm,Calm,-,N/A,,Scattered Clouds,0,2011-10-07 10:35:00
6:52 AM,24.1,21.0,88,30.45,10.0,Calm,Calm,-,N/A,,Partly Cloudy,0,2011-10-07 10:52:00
7:15 AM,24.8,21.2,86,30.41,2.5,Calm,Calm,-,N/A,,Mostly Cloudy,0,2011-10-07 11:15:00
7:17 AM,24.8,21.2,86,30.41,0.8,Calm,Calm,-,N/A,,Mist,0,2011-10-07 11:17:00
7:25 AM,26.6,23.0,86,30.41,0.2,Calm,Calm,-,N/A,Fog,Light Freezing Fog,0,2011-10-07 11:25:00
7:32 AM,26.6,24.8,93,30.41,1.2,Calm,Calm,-,N/A,,Overcast,0,2011-10-07 11:32:00
7:34 AM,26.6,24.8,93,30.42,5.0,Calm,Calm,-,N/A,,Overcast,0,2011-10-07 11:34:00
7:52 AM,27.0,26.1,96,30.48,2.0,Calm,Calm,-,N/A,,Overcast,0,2011-10-07 11:52:00
7:54 AM,28.4,26.6,93,30.42,1.2,Calm,Calm,-,N/A,,Overcast,0,2011-10-07 11:54:00
8:00 AM,28.4,26.6,93,30.43,0.2,Calm,Calm,-,N/A,Fog,Light Freezing Fog,0,2011-10-07 12:00:00
8:08 AM,28.4,26.6,93,30.43,1.0,Calm,Calm,-,N/A,,Mist,0,2011-10-07 12:08:00
8:11 AM,28.4,26.6,93,30.43,3.0,Calm,Calm,-,N/A,,Mostly Cloudy,0,2011-10-07 12:11:00
8:21 AM,28.4,28.4,100,30.43,7.0,Calm,Calm,-,N/A,,Scattered Clouds,0,2011-10-07 12:21:00
8:52 AM,32.0,28.9,88,30.48,10.0,Calm,Calm,-,N/A,,Clear,0,2011-10-07 12:52:00
9:52 AM,39.0,30.0,70,30.48,10.0,Calm,Calm,-,N/A,,Clear,0,2011-10-07 13:52:00
10:52 AM,48.0,30.9,52,30.47,10.0,Calm,Calm,-,N/A,,Clear,0,2011-10-07 14:52:00
11:52 AM,55.9,28.0,34,30.44,10.0,Variable,4.6,-,N/A,,Mostly Cloudy,0,2011-10-07 15:52:00
12:52 PM,57.0,27.0,32,30.43,10.0,Calm,Calm,-,N/A,,Clear,0,2011-10-07 16:52:00
1:52 PM,57.9,26.1,30,30.41,10.0,Variable,4.6,-,N/A,,Partly Cloudy,0,2011-10-07 17:52:00
2:52 PM,61.0,27.0,27,30.40,10.0,Variable,4.6,-,N/A,,Clear,0,2011-10-07 18:52:00
3:52 PM,61.0,27.0,27,30.39,10.0,Variable,5.8,-,N/A,,Clear,0,2011-10-07 19:52:00
4:52 PM,61.0,28.9,30,30.39,10.0,Calm,Calm,-,N/A,,Clear,0,2011-10-07 20:52:00
5:52 PM,57.9,33.1,39,30.38,10.0,Calm,Calm,-,N/A,,Clear,0,2011-10-07 21:52:00
6:52 PM,46.0,39.9,79,30.40,10.0,Calm,Calm,-,N/A,,Clear,0,2011-10-07 22:52:00
7:52 PM,42.1,37.9,85,30.42,10.0,Calm,Calm,-,N/A,,Clear,0,2011-10-07 23:52:00
8:52 PM,39.9,37.0,89,30.41,10.0,Calm,Calm,-,N/A,,Clear,0,2011-10-08 00:52:00
9:52 PM,37.9,36.0,93,30.41,10.0,Calm,Calm,-,N/A,,Clear,0,2011-10-08 01:52:00
10:52 PM,37.0,34.0,89,30.41,10.0,Calm,Calm,-,N/A,,Clear,0,2011-10-08 02:52:00
11:52 PM,37.9,35.1,89,30.40,10.0,Calm,Calm,-,N/A,,Clear,0,2011-10-08 03:52:00